^^

..:: Storico WU ::..




Lo storico viene creato da WUnderground con i dati che la stazione Meteomincio invia al loro server. L' aggiornamento viene fatto ogni 5 minuti circa, tuttavia possono esserci intervalli pił ampi a causa di errori, interruzioni di servizio o problemi nell' invio tramite FTP.


Storico stazione MeteoMincio
Giorno Sommario per Febbario 11, 2022 Unità:  Inglese    Metrico   Entrambi
Giorno Settimana Mese Anno
  Max: Min: Media:
Temperatura: 53.6 °F 39.2 °F 46.9 °F
Dew Point: 48.2 °F 37.4 °F 42.4 °F
Umidità: 92% 77% 85%
Velocità vento: 6.8mph 0mph 2.7mph
Raffica: 10.6mph - -
Direzione- - ESE
Pressione: 30.4 in 30.2 in -
Precipitazioni: 0 in    
 
 
Tabulato Dati per Febbario 11, 2022
Ora Temperatura Dew Point Pressione Direzione Velocità vento Raffica Umidità Intensità pioggia (oraria) Info solare Situazione
00:04 46.4 °F 41 °F 30.3 in Calm     85% 0 in 0.00 W/m2 unknown
00:09 46.4 °F 41 °F 30.3 in Calm     85% 0 in 0.00 W/m2 unknown
00:14 46.4 °F 41 °F 30.3 in Calm     85% 0 in 0.00 W/m2 unknown
00:19 46.4 °F 41 °F 30.3 in Calm     85% 0 in 0.00 W/m2 unknown
00:24 46.4 °F 41 °F 30.3 in Calm     85% 0 in 0.00 W/m2 unknown
00:29 46.4 °F 41 °F 30.3 in ESE 1.2 mph 1.9 mph 85% 0 in 0.00 W/m2 unknown
00:34 46.4 °F 41 °F 30.3 in ENE 1.9 mph 3.7 mph 85% 0 in 0.00 W/m2 unknown
00:39 46.4 °F 41 °F 30.3 in ENE 1.2 mph 2.5 mph 86% 0 in 0.00 W/m2 unknown
00:44 46.4 °F 41 °F 30.3 in ENE 1.9 mph 2.5 mph 86% 0 in 0.00 W/m2 unknown
00:49 46.4 °F 41 °F 30.3 in ENE 1.9 mph 2.5 mph 86% 0 in 0.00 W/m2 unknown
00:54 44.6 °F 41 °F 30.3 in ENE 0.6 mph 1.9 mph 86% 0 in 0.00 W/m2 unknown
00:59 44.6 °F 41 °F 30.3 in ENE 1.9 mph 2.5 mph 86% 0 in 0.00 W/m2 unknown
01:04 44.6 °F 41 °F 30.3 in NE 1.9 mph 3.1 mph 86% 0 in 0.00 W/m2 unknown
01:09 46.4 °F 41 °F 30.3 in NE 1.9 mph 3.1 mph 86% 0 in 0.00 W/m2 unknown
01:14 44.6 °F 41 °F 30.3 in ENE 2.5 mph 3.7 mph 86% 0 in 0.00 W/m2 unknown
01:19 44.6 °F 41 °F 30.3 in ENE 2.5 mph 3.7 mph 86% 0 in 0.00 W/m2 unknown
01:24 44.6 °F 41 °F 30.3 in ENE 2.5 mph 3.7 mph 86% 0 in 0.00 W/m2 unknown
01:29 44.6 °F 41 °F 30.3 in East 1.9 mph 3.7 mph 86% 0 in 0.00 W/m2 unknown
01:34 44.6 °F 41 °F 30.3 in East 2.5 mph 3.7 mph 86% 0 in 0.00 W/m2 unknown
01:39 44.6 °F 41 °F 30.3 in East 2.5 mph 5 mph 86% 0 in 0.00 W/m2 unknown
01:44 44.6 °F 41 °F 30.3 in ESE 3.1 mph 5 mph 86% 0 in 0.00 W/m2 unknown
01:49 44.6 °F 41 °F 30.3 in ESE 3.1 mph 3.7 mph 87% 0 in 0.00 W/m2 unknown
01:54 44.6 °F 41 °F 30.3 in East 1.9 mph 3.1 mph 87% 0 in 0.00 W/m2 unknown
01:59 44.6 °F 41 °F 30.3 in East 2.5 mph 3.7 mph 87% 0 in 0.00 W/m2 unknown
02:04 44.6 °F 41 °F 30.3 in East 2.5 mph 3.7 mph 87% 0 in 0.00 W/m2 unknown
02:09 44.6 °F 41 °F 30.3 in ESE 3.1 mph 3.7 mph 87% 0 in 0.00 W/m2 unknown
02:14 44.6 °F 41 °F 30.3 in ESE 3.7 mph 6.8 mph 87% 0 in 0.00 W/m2 unknown
02:19 44.6 °F 41 °F 30.3 in ESE 4.3 mph 6.8 mph 87% 0 in 0.00 W/m2 unknown
02:24 44.6 °F 41 °F 30.3 in ESE 5 mph 6.8 mph 87% 0 in 0.00 W/m2 unknown
02:29 44.6 °F 41 °F 30.3 in East 3.7 mph 6.8 mph 87% 0 in 0.00 W/m2 unknown
02:34 44.6 °F 41 °F 30.3 in East 3.7 mph 6.2 mph 87% 0 in 0.00 W/m2 unknown
02:39 44.6 °F 41 °F 30.2 in ESE 3.1 mph 5 mph 87% 0 in 0.00 W/m2 unknown
02:44 44.6 °F 41 °F 30.2 in ESE 1.9 mph 3.7 mph 87% 0 in 0.00 W/m2 unknown
02:49 44.6 °F 41 °F 30.2 in ESE 3.1 mph 3.7 mph 87% 0 in 0.00 W/m2 unknown
02:54 44.6 °F 41 °F 30.2 in ESE 3.1 mph 3.7 mph 87% 0 in 0.00 W/m2 unknown
02:59 44.6 °F 41 °F 30.2 in NE 3.1 mph 3.7 mph 87% 0 in 0.00 W/m2 unknown
03:04 44.6 °F 41 °F 30.2 in ENE 2.5 mph 3.7 mph 87% 0 in 0.00 W/m2 unknown
03:09 44.6 °F 41 °F 30.2 in East 2.5 mph 3.7 mph 87% 0 in 0.00 W/m2 unknown
03:14 44.6 °F 41 °F 30.2 in ENE 2.5 mph 3.7 mph 87% 0 in 0.00 W/m2 unknown
03:19 44.6 °F 41 °F 30.2 in ENE 1.9 mph 3.1 mph 88% 0 in 0.00 W/m2 unknown
03:24 44.6 °F 41 °F 30.2 in NE 2.5 mph 3.7 mph 88% 0 in 0.00 W/m2 unknown
03:29 44.6 °F 41 °F 30.2 in East 2.5 mph 3.7 mph 88% 0 in 0.00 W/m2 unknown
03:34 44.6 °F 41 °F 30.2 in ENE 2.5 mph 5 mph 88% 0 in 0.00 W/m2 unknown
03:39 44.6 °F 41 °F 30.2 in East 3.7 mph 5 mph 88% 0 in 0.00 W/m2 unknown
03:44 44.6 °F 41 °F 30.2 in ENE 3.7 mph 6.2 mph 88% 0 in 0.00 W/m2 unknown
03:49 44.6 °F 41 °F 30.2 in ENE 3.1 mph 6.2 mph 88% 0 in 0.00 W/m2 unknown
03:54 44.6 °F 41 °F 30.2 in ENE 3.1 mph 5 mph 88% 0 in 0.00 W/m2 unknown
03:59 44.6 °F 41 °F 30.2 in ENE 3.1 mph 5 mph 87% 0 in 0.00 W/m2 unknown
04:04 44.6 °F 41 °F 30.2 in ENE 3.1 mph 5 mph 87% 0 in 0.00 W/m2 unknown
04:09 44.6 °F 41 °F 30.2 in NE 3.1 mph 5 mph 87% 0 in 0.00 W/m2 unknown
04:14 44.6 °F 41 °F 30.2 in NE 3.1 mph 5 mph 87% 0 in 0.00 W/m2 unknown
04:19 44.6 °F 41 °F 30.2 in ENE 3.1 mph 5 mph 87% 0 in 0.00 W/m2 unknown
04:24 44.6 °F 41 °F 30.2 in ENE 3.1 mph 5 mph 87% 0 in 0.00 W/m2 unknown
04:29 44.6 °F 41 °F 30.2 in ENE 2.5 mph 3.7 mph 87% 0 in 0.00 W/m2 unknown
04:34 44.6 °F 41 °F 30.2 in ENE 3.1 mph 5 mph 87% 0 in 0.00 W/m2 unknown
04:39 44.6 °F 41 °F 30.2 in ENE 3.7 mph 5 mph 87% 0 in 0.00 W/m2 unknown
04:44 44.6 °F 41 °F 30.2 in ENE 3.1 mph 3.7 mph 87% 0 in 0.00 W/m2 unknown
04:49 44.6 °F 41 °F 30.2 in ENE 2.5 mph 3.7 mph 87% 0 in 0.00 W/m2 unknown
04:54 44.6 °F 41 °F 30.2 in ENE 2.5 mph 5 mph 87% 0 in 0.00 W/m2 unknown
04:59 44.6 °F 41 °F 30.2 in ENE 3.1 mph 5 mph 87% 0 in 0.00 W/m2 unknown
05:04 44.6 °F 41 °F 30.2 in ENE 2.5 mph 5 mph 87% 0 in 0.00 W/m2 unknown
05:09 44.6 °F 41 °F 30.2 in ENE 2.5 mph 3.7 mph 87% 0 in 0.00 W/m2 unknown
05:14 44.6 °F 41 °F 30.2 in ENE 2.5 mph 3.7 mph 87% 0 in 0.00 W/m2 unknown
05:19 44.6 °F 41 °F 30.2 in ENE 2.5 mph 3.7 mph 87% 0 in 0.00 W/m2 unknown
05:24 44.6 °F 41 °F 30.2 in East 1.9 mph 3.7 mph 88% 0 in 0.00 W/m2 unknown
05:29 44.6 °F 41 °F 30.2 in East 1.9 mph 3.1 mph 88% 0 in 0.00 W/m2 unknown
05:34 44.6 °F 41 °F 30.2 in NE 2.5 mph 3.7 mph 88% 0 in 0.00 W/m2 unknown
05:39 44.6 °F 41 °F 30.2 in ENE 1.9 mph 3.7 mph 88% 0 in 0.00 W/m2 unknown
05:44 44.6 °F 41 °F 30.2 in ENE 1.9 mph 3.7 mph 88% 0 in 0.00 W/m2 unknown
05:49 44.6 °F 41 °F 30.2 in ENE 1.9 mph 3.7 mph 88% 0 in 0.00 W/m2 unknown
05:54 44.6 °F 41 °F 30.2 in ENE 1.9 mph 3.1 mph 88% 0 in 0.00 W/m2 unknown
05:59 44.6 °F 41 °F 30.2 in ENE 2.5 mph 3.7 mph 88% 0 in 0.00 W/m2 unknown
06:04 44.6 °F 41 °F 30.2 in East 2.5 mph 3.7 mph 88% 0 in 0.00 W/m2 unknown
06:09 44.6 °F 41 °F 30.2 in East 1.2 mph 3.1 mph 88% 0 in 0.00 W/m2 unknown
06:14 44.6 °F 41 °F 30.2 in East 1.2 mph 2.5 mph 88% 0 in 0.00 W/m2 unknown
06:19 44.6 °F 41 °F 30.2 in East 1.2 mph 2.5 mph 88% 0 in 0.00 W/m2 unknown
06:24 44.6 °F 41 °F 30.2 in East 1.2 mph 2.5 mph 89% 0 in 0.00 W/m2 unknown
06:29 44.6 °F 41 °F 30.2 in ENE 1.9 mph 2.5 mph 89% 0 in 0.00 W/m2 unknown
06:34 44.6 °F 41 °F 30.2 in ENE 1.9 mph 2.5 mph 89% 0 in 0.00 W/m2 unknown
06:39 44.6 °F 41 °F 30.2 in ENE 1.9 mph 2.5 mph 89% 0 in 0.00 W/m2 unknown
06:44 44.6 °F 41 °F 30.2 in ENE 1.2 mph 2.5 mph 89% 0 in 0.00 W/m2 unknown
06:49 44.6 °F 41 °F 30.2 in ENE 1.2 mph 2.5 mph 89% 0 in 0.00 W/m2 unknown
06:54 44.6 °F 41 °F 30.2 in ENE 1.2 mph 1.9 mph 89% 0 in 0.00 W/m2 unknown
06:59 44.6 °F 41 °F 30.2 in Calm   1.2 mph 89% 0 in 0.00 W/m2 unknown
07:04 44.6 °F 41 °F 30.2 in Calm     89% 0 in 0.00 W/m2 unknown
07:09 44.6 °F 41 °F 30.2 in ENE 1.9 mph 3.7 mph 89% 0 in 0.00 W/m2 unknown
07:14 44.6 °F 41 °F 30.2 in ENE 1.9 mph 3.7 mph 89% 0 in 0.00 W/m2 unknown
07:19 44.6 °F 41 °F 30.2 in Calm   3.1 mph 89% 0 in 0.00 W/m2 unknown
07:24 44.6 °F 41 °F 30.2 in Calm     89% 0 in 0.00 W/m2 unknown
07:29 44.6 °F 41 °F 30.2 in Calm     89% 0 in 0.00 W/m2 unknown
07:34 44.6 °F 41 °F 30.2 in ENE 1.9 mph 3.1 mph 89% 0 in 0.00 W/m2 unknown
07:39 44.6 °F 41 °F 30.2 in ENE 2.5 mph 3.7 mph 89% 0 in 7.00 W/m2 unknown
07:44 44.6 °F 41 °F 30.2 in ENE 2.5 mph 3.7 mph 89% 0 in 9.00 W/m2 unknown
07:49 44.6 °F 41 °F 30.2 in NE 3.1 mph 3.7 mph 89% 0 in 11.00 W/m2 unknown
07:54 44.6 °F 41 °F 30.2 in ENE 3.7 mph 5 mph 89% 0 in 16.00 W/m2 unknown
07:59 44.6 °F 41 °F 30.2 in ENE 2.5 mph 5 mph 89% 0 in 16.00 W/m2 unknown
08:04 44.6 °F 41 °F 30.2 in ENE 3.1 mph 3.7 mph 89% 0 in 19.00 W/m2 unknown
08:09 44.6 °F 41 °F 30.2 in ENE 3.1 mph 5 mph 89% 0 in 26.00 W/m2 unknown
08:14 44.6 °F 41 °F 30.2 in ENE 2.5 mph 5 mph 89% 0 in 32.00 W/m2 unknown
08:19 44.6 °F 41 °F 30.2 in ENE 3.1 mph 3.7 mph 89% 0 in 37.00 W/m2 unknown
08:24 44.6 °F 41 °F 30.2 in ENE 3.1 mph 3.7 mph 89% 0 in 35.00 W/m2 unknown
08:29 44.6 °F 41 °F 30.2 in ENE 3.1 mph 5 mph 89% 0 in 35.00 W/m2 unknown
08:34 44.6 °F 41 °F 30.2 in ENE 3.7 mph 4.3 mph 89% 0 in 39.00 W/m2 unknown
08:39 44.6 °F 41 °F 30.2 in ENE 3.1 mph 5 mph 89% 0 in 40.00 W/m2 unknown
08:44 44.6 °F 41 °F 30.2 in ENE 3.7 mph 4.3 mph 89% 0 in 42.00 W/m2 unknown
08:49 44.6 °F 41 °F 30.2 in NE 3.1 mph 5 mph 89% 0 in 42.00 W/m2 unknown
08:54 44.6 °F 41 °F 30.2 in ENE 3.1 mph 5 mph 89% 0 in 42.00 W/m2 unknown
08:59 44.6 °F 41 °F 30.2 in ENE 4.3 mph 5 mph 89% 0 in 47.00 W/m2 unknown
09:04 44.6 °F 41 °F 30.2 in NE 3.7 mph 5 mph 88% 0 in 49.00 W/m2 unknown
09:09 44.6 °F 41 °F 30.2 in NE 3.1 mph 5 mph 88% 0 in 49.00 W/m2 unknown
09:14 44.6 °F 41 °F 30.2 in ENE 3.1 mph 5 mph 88% 0 in 51.00 W/m2 unknown
09:19 44.6 °F 41 °F 30.2 in ENE 3.7 mph 5 mph 88% 0 in 53.00 W/m2 unknown
09:24 44.6 °F 41 °F 30.2 in ENE 3.7 mph 5 mph 88% 0 in 58.00 W/m2 unknown
09:29 44.6 °F 41 °F 30.2 in ENE 3.7 mph 5 mph 87% 0 in 65.00 W/m2 unknown
09:34 44.6 °F 41 °F 30.2 in NE 3.1 mph 5 mph 87% 0 in 70.00 W/m2 unknown
09:39 44.6 °F 41 °F 30.2 in ENE 2.5 mph 3.7 mph 87% 0 in 76.00 W/m2 unknown
09:44 44.6 °F 41 °F 30.2 in East 2.5 mph 3.7 mph 87% 0 in 76.00 W/m2 unknown
09:49 44.6 °F 41 °F 30.2 in ENE 3.1 mph 3.7 mph 87% 0 in 77.00 W/m2 unknown
09:54 46.4 °F 42.8 °F 30.2 in ENE 5 mph 6.8 mph 87% 0 in 90.00 W/m2 unknown
09:59 46.4 °F 42.8 °F 30.2 in ENE 4.3 mph 6.8 mph 87% 0 in 98.00 W/m2 unknown
10:04 46.4 °F 42.8 °F 30.2 in ENE 3.1 mph 5 mph 87% 0 in 109.00 W/m2 unknown
10:09 46.4 °F 42.8 °F 30.2 in ENE 3.7 mph 5 mph 87% 0 in 116.00 W/m2 unknown
10:14 46.4 °F 42.8 °F 30.2 in East 3.1 mph 5 mph 86% 0 in 118.00 W/m2 unknown
10:19 46.4 °F 42.8 °F 30.2 in ENE 3.7 mph 5 mph 86% 0 in 134.00 W/m2 unknown
10:24 46.4 °F 42.8 °F 30.2 in ENE 4.3 mph 6.8 mph 86% 0 in 141.00 W/m2 unknown
10:29 46.4 °F 42.8 °F 30.2 in ENE 3.7 mph 6.8 mph 85% 0 in 141.00 W/m2 unknown
10:34 46.4 °F 42.8 °F 30.2 in East 3.1 mph 5 mph 85% 0 in 141.00 W/m2 unknown
10:39 46.4 °F 42.8 °F 30.2 in ENE 2.5 mph 5 mph 85% 0 in 178.00 W/m2 unknown
10:44 48.2 °F 42.8 °F 30.2 in ENE 3.1 mph 3.7 mph 85% 0 in 186.00 W/m2 unknown
10:49 48.2 °F 42.8 °F 30.2 in East 2.5 mph 3.7 mph 85% 0 in 206.00 W/m2 unknown
10:54 48.2 °F 42.8 °F 30.2 in East 1.9 mph 3.7 mph 85% 0 in 206.00 W/m2 unknown
10:59 48.2 °F 42.8 °F 30.2 in East 2.5 mph 3.7 mph 85% 0 in 204.00 W/m2 unknown
11:04 48.2 °F 42.8 °F 30.2 in ESE 1.9 mph 3.7 mph 84% 0 in 204.00 W/m2 unknown
11:09 48.2 °F 42.8 °F 30.2 in ESE 1.2 mph 3.7 mph 84% 0 in 214.00 W/m2 unknown
11:14 48.2 °F 42.8 °F 30.2 in East 1.2 mph 3.1 mph 84% 0 in 181.00 W/m2 unknown
11:19 48.2 °F 44.6 °F 30.2 in ENE 1.9 mph 3.7 mph 84% 0 in 167.00 W/m2 unknown
11:24 48.2 °F 44.6 °F 30.2 in SE 1.2 mph 2.5 mph 83% 0 in 230.00 W/m2 unknown
11:29 48.2 °F 44.6 °F 30.2 in SSW 2.5 mph 3.7 mph 83% 0 in 269.00 W/m2 unknown
11:34 50 °F 44.6 °F 30.2 in SSW 1.2 mph 3.7 mph 82% 0 in 269.00 W/m2 unknown
11:39 50 °F 44.6 °F 30.2 in SW 3.1 mph 3.7 mph 82% 0 in 230.00 W/m2 unknown
11:44 50 °F 44.6 °F 30.2 in SW 3.1 mph 3.7 mph 82% 0 in 211.00 W/m2 unknown
11:49 50 °F 44.6 °F 30.2 in SW 2.5 mph 3.7 mph 82% 0 in 193.00 W/m2 unknown
11:54 50 °F 44.6 °F 30.2 in SW 3.7 mph 5 mph 82% 0 in 160.00 W/m2 unknown
11:59 50 °F 44.6 °F 30.2 in SSW 1.9 mph 5 mph 81% 0 in 146.00 W/m2 unknown
12:04 50 °F 44.6 °F 30.2 in SSW 2.5 mph 3.7 mph 81% 0 in 146.00 W/m2 unknown
12:09 50 °F 44.6 °F 30.2 in SW 1.9 mph 3.7 mph 82% 0 in 134.00 W/m2 unknown
12:14 50 °F 44.6 °F 30.2 in West 1.9 mph 3.7 mph 82% 0 in 134.00 W/m2 unknown
12:19 50 °F 44.6 °F 30.2 in West 2.5 mph 3.7 mph 82% 0 in 121.00 W/m2 unknown
12:24 50 °F 44.6 °F 30.2 in West 2.5 mph 3.7 mph 81% 0 in 171.00 W/m2 unknown
12:29 50 °F 44.6 °F 30.2 in West 2.5 mph 3.7 mph 81% 0 in 190.00 W/m2 unknown
12:34 50 °F 44.6 °F 30.2 in WSW 2.5 mph 3.7 mph 81% 0 in 163.00 W/m2 unknown
12:39 50 °F 44.6 °F 30.2 in WSW 3.1 mph 3.7 mph 81% 0 in 151.00 W/m2 unknown
12:44 50 °F 44.6 °F 30.2 in WNW 3.7 mph 5 mph 81% 0 in 167.00 W/m2 unknown
12:49 50 °F 44.6 °F 30.2 in WSW 3.7 mph 5 mph 81% 0 in 183.00 W/m2 unknown
12:54 51.8 °F 46.4 °F 30.2 in WSW 3.1 mph 3.7 mph 82% 0 in 153.00 W/m2 unknown
12:59 51.8 °F 44.6 °F 30.2 in SW 3.1 mph 3.7 mph 81% 0 in 139.00 W/m2 unknown
13:04 50 °F 44.6 °F 30.2 in West 2.5 mph 3.7 mph 81% 0 in 148.00 W/m2 unknown
13:09 51.8 °F 44.6 °F 30.2 in WNW 1.9 mph 3.7 mph 80% 0 in 178.00 W/m2 unknown
13:14 51.8 °F 44.6 °F 30.2 in WNW 2.5 mph 3.7 mph 80% 0 in 181.00 W/m2 unknown
13:19 51.8 °F 46.4 °F 30.2 in NW 2.5 mph 3.7 mph 80% 0 in 211.00 W/m2 unknown
13:24 51.8 °F 46.4 °F 30.2 in West 2.5 mph 3.7 mph 81% 0 in 251.00 W/m2 unknown
13:29 51.8 °F 46.4 °F 30.2 in West 3.7 mph 5 mph 80% 0 in 250.00 W/m2 unknown
13:34 51.8 °F 46.4 °F 30.2 in West 6.2 mph 6.8 mph 80% 0 in 239.00 W/m2 unknown
13:39 51.8 °F 46.4 °F 30.2 in WNW 3.1 mph 6.8 mph 79% 0 in 329.00 W/m2 unknown
13:44 51.8 °F 46.4 °F 30.2 in WNW 3.7 mph 5 mph 79% 0 in 237.00 W/m2 unknown
13:49 51.8 °F 46.4 °F 30.2 in WNW 3.7 mph 5 mph 79% 0 in 239.00 W/m2 unknown
13:54 53.6 °F 46.4 °F 30.2 in WNW 3.7 mph 5 mph 79% 0 in 239.00 W/m2 unknown
13:59 53.6 °F 46.4 °F 30.2 in West 3.1 mph 5 mph 80% 0 in 163.00 W/m2 unknown
14:04 53.6 °F 46.4 °F 30.2 in West 5 mph 5 mph 79% 0 in 160.00 W/m2 unknown
14:09 53.6 °F 46.4 °F 30.2 in West 3.7 mph 5 mph 79% 0 in 137.00 W/m2 unknown
14:14 53.6 °F 46.4 °F 30.2 in West 3.1 mph 5 mph 79% 0 in 156.00 W/m2 unknown
14:19 53.6 °F 46.4 °F 30.2 in NW 3.7 mph 5 mph 79% 0 in 148.00 W/m2 unknown
14:24 53.6 °F 46.4 °F 30.2 in NW 3.1 mph 5 mph 78% 0 in 155.00 W/m2 unknown
14:29 53.6 °F 46.4 °F 30.2 in West 4.3 mph 6.2 mph 78% 0 in 176.00 W/m2 unknown
14:34 53.6 °F 46.4 °F 30.2 in West 4.3 mph 6.2 mph 78% 0 in 169.00 W/m2 unknown
14:39 53.6 °F 46.4 °F 30.2 in WNW 3.1 mph 5 mph 78% 0 in 192.00 W/m2 unknown
14:44 53.6 °F 46.4 °F 30.2 in NW 3.1 mph 3.7 mph 78% 0 in 295.00 W/m2 unknown
14:49 53.6 °F 46.4 °F 30.2 in WNW 3.7 mph 5 mph 78% 0 in 246.00 W/m2 unknown
14:54 53.6 °F 46.4 °F 30.2 in West 4.3 mph 6.2 mph 78% 0 in 171.00 W/m2 unknown
14:59 53.6 °F 46.4 °F 30.2 in West 5 mph 6.2 mph 78% 0 in 109.00 W/m2 unknown
15:04 53.6 °F 46.4 °F 30.2 in WNW 4.3 mph 5 mph 78% 0 in 95.00 W/m2 unknown
15:09 53.6 °F 46.4 °F 30.2 in WNW 3.7 mph 5 mph 78% 0 in 97.00 W/m2 unknown
15:14 53.6 °F 46.4 °F 30.2 in NNW 2.5 mph 3.7 mph 78% 0 in 121.00 W/m2 unknown
15:19 53.6 °F 48.2 °F 30.2 in NNW 3.1 mph 3.7 mph 78% 0 in 128.00 W/m2 unknown
15:24 53.6 °F 48.2 °F 30.2 in NW 2.5 mph 3.7 mph 78% 0 in 123.00 W/m2 unknown
15:29 53.6 °F 48.2 °F 30.2 in North 1.9 mph 3.7 mph 78% 0 in 105.00 W/m2 unknown
15:34 53.6 °F 46.4 °F 30.2 in NE 3.7 mph 5 mph 77% 0 in 141.00 W/m2 unknown
15:39 53.6 °F 48.2 °F 30.2 in NNE 3.1 mph 5 mph 79% 0 in 116.00 W/m2 unknown
15:44 53.6 °F 48.2 °F 30.2 in NNE 2.5 mph 3.7 mph 79% 0 in 111.00 W/m2 unknown
15:49 53.6 °F 48.2 °F 30.2 in NE 5 mph 5 mph 79% 0 in 91.00 W/m2 unknown
15:54 53.6 °F 46.4 °F 30.2 in NE 5 mph 6.2 mph 78% 0 in 88.00 W/m2 unknown
15:59 53.6 °F 46.4 °F 30.2 in NNE 3.7 mph 4.3 mph 78% 0 in 90.00 W/m2 unknown
16:04 53.6 °F 46.4 °F 30.2 in NE 3.1 mph 5 mph 79% 0 in 91.00 W/m2 unknown
16:09 53.6 °F 46.4 °F 30.2 in ENE 3.7 mph 5 mph 79% 0 in 90.00 W/m2 unknown
16:14 53.6 °F 46.4 °F 30.2 in NE 3.1 mph 5 mph 79% 0 in 81.00 W/m2 unknown
16:19 53.6 °F 46.4 °F 30.2 in NNE 3.1 mph 3.7 mph 79% 0 in 90.00 W/m2 unknown
16:24 53.6 °F 46.4 °F 30.2 in NE 2.5 mph 3.7 mph 80% 0 in 102.00 W/m2 unknown
16:29 53.6 °F 46.4 °F 30.2 in NNE 1.9 mph 3.7 mph 79% 0 in 102.00 W/m2 unknown
16:34 53.6 °F 46.4 °F 30.2 in NNE 1.2 mph 2.5 mph 79% 0 in 90.00 W/m2 unknown
16:39 53.6 °F 46.4 °F 30.2 in NE 1.9 mph 2.5 mph 79% 0 in 81.00 W/m2 unknown
16:44 53.6 °F 46.4 °F 30.2 in ENE 2.5 mph 3.7 mph 79% 0 in 72.00 W/m2 unknown
16:49 53.6 °F 46.4 °F 30.2 in East 1.2 mph 3.1 mph 79% 0 in 65.00 W/m2 unknown
16:54 53.6 °F 46.4 °F 30.2 in Calm   1.2 mph 79% 0 in 72.00 W/m2 unknown
16:59 53.6 °F 46.4 °F 30.2 in Calm     79% 0 in 74.00 W/m2 unknown
17:04 53.6 °F 46.4 °F 30.2 in Calm     80% 0 in 65.00 W/m2 unknown
17:09 51.8 °F 46.4 °F 30.2 in East 1.9 mph 3.7 mph 80% 0 in 56.00 W/m2 unknown
17:14 51.8 °F 46.4 °F 30.2 in ENE 2.5 mph 3.7 mph 80% 0 in 47.00 W/m2 unknown
17:19 51.8 °F 46.4 °F 30.2 in ENE 1.9 mph 3.7 mph 81% 0 in 37.00 W/m2 unknown
17:24 51.8 °F 46.4 °F 30.2 in ENE 1.9 mph 2.5 mph 81% 0 in 25.00 W/m2 unknown
17:29 51.8 °F 46.4 °F 30.2 in ENE 1.9 mph 3.1 mph 81% 0 in 18.00 W/m2 unknown
17:34 51.8 °F 46.4 °F 30.2 in East 2.5 mph 3.7 mph 82% 0 in 12.00 W/m2 unknown
17:39 51.8 °F 46.4 °F 30.2 in East 2.5 mph 4.3 mph 83% 0 in 7.00 W/m2 unknown
17:44 50 °F 46.4 °F 30.2 in East 2.5 mph 5 mph 83% 0 in 0.00 W/m2 unknown
17:49 50 °F 46.4 °F 30.2 in East 2.5 mph 3.7 mph 84% 0 in 0.00 W/m2 unknown
17:54 50 °F 46.4 °F 30.2 in ENE 3.1 mph 5 mph 84% 0 in 0.00 W/m2 unknown
17:59 50 °F 44.6 °F 30.2 in East 3.7 mph 6.2 mph 84% 0 in 0.00 W/m2 unknown
18:04 50 °F 44.6 °F 30.2 in East 5 mph 6.2 mph 85% 0 in 0.00 W/m2 unknown
18:09 50 °F 44.6 °F 30.2 in East 3.7 mph 6.2 mph 85% 0 in 0.00 W/m2 unknown
18:14 50 °F 44.6 °F 30.2 in ENE 4.3 mph 6.2 mph 85% 0 in 0.00 W/m2 unknown
18:19 50 °F 44.6 °F 30.2 in ENE 3.7 mph 6.2 mph 85% 0 in 0.00 W/m2 unknown
18:24 50 °F 44.6 °F 30.2 in ENE 3.7 mph 6.2 mph 85% 0 in 0.00 W/m2 unknown
18:29 50 °F 44.6 °F 30.2 in ENE 3.7 mph 6.2 mph 85% 0 in 0.00 W/m2 unknown
18:34 48.2 °F 44.6 °F 30.2 in ENE 3.7 mph 6.2 mph 86% 0 in 0.00 W/m2 unknown
18:39 48.2 °F 44.6 °F 30.2 in ENE 3.7 mph 6.2 mph 86% 0 in 0.00 W/m2 unknown
18:44 48.2 °F 44.6 °F 30.2 in ENE 4.3 mph 5 mph 87% 0 in 0.00 W/m2 unknown
18:49 48.2 °F 44.6 °F 30.2 in ENE 5 mph 5 mph 87% 0 in 0.00 W/m2 unknown
18:54 48.2 °F 44.6 °F 30.2 in ENE 5 mph 5 mph 86% 0 in 0.00 W/m2 unknown
18:59 48.2 °F 44.6 °F 30.2 in ENE 6.8 mph 10.6 mph 86% 0 in 0.00 W/m2 unknown
19:04 48.2 °F 44.6 °F 30.2 in ENE 6.2 mph 9.9 mph 86% 0 in 0.00 W/m2 unknown
19:09 48.2 °F 42.8 °F 30.3 in ENE 5.6 mph 8.1 mph 86% 0 in 0.00 W/m2 unknown
19:14 46.4 °F 42.8 °F 30.3 in ENE 5.6 mph 8.1 mph 86% 0 in 0.00 W/m2 unknown
19:19 46.4 °F 42.8 °F 30.3 in ENE 5 mph 8.1 mph 86% 0 in 0.00 W/m2 unknown
19:24 46.4 °F 42.8 °F 30.3 in East 5.6 mph 8.1 mph 86% 0 in 0.00 W/m2 unknown
19:29 46.4 °F 42.8 °F 30.3 in East 5 mph 8.1 mph 86% 0 in 0.00 W/m2 unknown
19:34 46.4 °F 42.8 °F 30.3 in East 5 mph 6.8 mph 86% 0 in 0.00 W/m2 unknown
19:39 46.4 °F 42.8 °F 30.3 in ENE 5 mph 6.8 mph 85% 0 in 0.00 W/m2 unknown
19:44 46.4 °F 42.8 °F 30.3 in ENE 5.6 mph 6.8 mph 85% 0 in 0.00 W/m2 unknown
19:49 46.4 °F 41 °F 30.3 in East 5 mph 6.8 mph 85% 0 in 0.00 W/m2 unknown
19:54 46.4 °F 41 °F 30.3 in East 5 mph 6.8 mph 85% 0 in 0.00 W/m2 unknown
19:59 46.4 °F 41 °F 30.3 in East 5 mph 6.2 mph 85% 0 in 0.00 W/m2 unknown
20:04 46.4 °F 41 °F 30.3 in ENE 5 mph 6.2 mph 85% 0 in 0.00 W/m2 unknown
20:09 46.4 °F 41 °F 30.3 in ENE 3.7 mph 6.2 mph 85% 0 in 0.00 W/m2 unknown
20:14 44.6 °F 41 °F 30.3 in ENE 3.7 mph 5 mph 85% 0 in 0.00 W/m2 unknown
20:19 44.6 °F 41 °F 30.3 in ENE 3.1 mph 5 mph 85% 0 in 0.00 W/m2 unknown
20:24 44.6 °F 41 °F 30.3 in ENE 2.5 mph 5 mph 85% 0 in 0.00 W/m2 unknown
20:29 46.4 °F 41 °F 30.3 in East 3.1 mph 5 mph 85% 0 in 0.00 W/m2 unknown
20:34 46.4 °F 41 °F 30.3 in ENE 3.1 mph 5 mph 85% 0 in 0.00 W/m2 unknown
20:39 46.4 °F 41 °F 30.3 in ENE 3.1 mph 5 mph 84% 0 in 0.00 W/m2 unknown
20:44 46.4 °F 41 °F 30.3 in ENE 3.1 mph 3.7 mph 84% 0 in 0.00 W/m2 unknown
20:49 44.6 °F 41 °F 30.3 in ENE 3.1 mph 3.7 mph 84% 0 in 0.00 W/m2 unknown
20:54 46.4 °F 41 °F 30.3 in ENE 3.7 mph 5 mph 84% 0 in 0.00 W/m2 unknown
20:59 46.4 °F 41 °F 30.3 in NE 3.1 mph 5 mph 83% 0 in 0.00 W/m2 unknown
21:04 46.4 °F 41 °F 30.3 in NE 3.1 mph 3.7 mph 84% 0 in 0.00 W/m2 unknown
21:09 44.6 °F 41 °F 30.3 in NE 3.1 mph 3.7 mph 84% 0 in 0.00 W/m2 unknown
21:14 44.6 °F 41 °F 30.3 in NNE 2.5 mph 3.7 mph 84% 0 in 0.00 W/m2 unknown
21:19 44.6 °F 41 °F 30.3 in NE 3.1 mph 3.7 mph 84% 0 in 0.00 W/m2 unknown
21:24 44.6 °F 41 °F 30.3 in NE 2.5 mph 3.7 mph 84% 0 in 0.00 W/m2 unknown
21:29 44.6 °F 41 °F 30.3 in NE 2.5 mph 3.7 mph 84% 0 in 0.00 W/m2 unknown
21:34 44.6 °F 39.2 °F 30.3 in NE 2.5 mph 3.7 mph 84% 0 in 0.00 W/m2 unknown
21:39 44.6 °F 39.2 °F 30.3 in NNE 2.5 mph 3.7 mph 85% 0 in 0.00 W/m2 unknown
21:44 44.6 °F 39.2 °F 30.3 in NNE 1.9 mph 3.1 mph 85% 0 in 0.00 W/m2 unknown
21:49 44.6 °F 39.2 °F 30.3 in NE 1.9 mph 2.5 mph 85% 0 in 0.00 W/m2 unknown
21:54 42.8 °F 39.2 °F 30.3 in ENE 1.9 mph 2.5 mph 86% 0 in 0.00 W/m2 unknown
21:59 42.8 °F 39.2 °F 30.3 in ENE 1.9 mph 2.5 mph 86% 0 in 0.00 W/m2 unknown
22:04 42.8 °F 39.2 °F 30.3 in East 1.9 mph 2.5 mph 87% 0 in 0.00 W/m2 unknown
22:09 42.8 °F 39.2 °F 30.3 in Calm   1.9 mph 87% 0 in 0.00 W/m2 unknown
22:14 42.8 °F 39.2 °F 30.3 in East 0.6 mph 1.2 mph 88% 0 in 0.00 W/m2 unknown
22:19 42.8 °F 39.2 °F 30.3 in ENE 1.2 mph 2.5 mph 88% 0 in 0.00 W/m2 unknown
22:24 42.8 °F 39.2 °F 30.3 in NE 1.9 mph 2.5 mph 88% 0 in 0.00 W/m2 unknown
22:29 42.8 °F 39.2 °F 30.3 in NE 1.9 mph 2.5 mph 88% 0 in 0.00 W/m2 unknown
22:34 42.8 °F 39.2 °F 30.3 in NE 1.2 mph 2.5 mph 88% 0 in 0.00 W/m2 unknown
22:39 42.8 °F 41 °F 30.3 in NE 3.1 mph 3.7 mph 92% 0 in 0.00 W/m2 unknown
22:44 42.8 °F 39.2 °F 30.3 in NE 2.5 mph 3.7 mph 88% 0 in 0.00 W/m2 unknown
22:49 42.8 °F 41 °F 30.3 in NE 1.9 mph 3.7 mph 92% 0 in 0.00 W/m2 unknown
22:54 42.8 °F 39.2 °F 30.3 in NNE 1.9 mph 3.1 mph 88% 0 in 0.00 W/m2 unknown
22:59 42.8 °F 39.2 °F 30.3 in NNE 1.9 mph 2.5 mph 88% 0 in 0.00 W/m2 unknown
23:04 42.8 °F 41 °F 30.3 in North 1.9 mph 3.7 mph 92% 0 in 0.00 W/m2 unknown
23:09 42.8 °F 39.2 °F 30.3 in NNW 2.5 mph 3.7 mph 92% 0 in 0.00 W/m2 unknown
23:14 42.8 °F 39.2 °F 30.3 in NNW 2.5 mph 3.7 mph 87% 0 in 0.00 W/m2 unknown
23:19 41 °F 37.4 °F 30.3 in North 2.5 mph 3.7 mph 88% 0 in 0.00 W/m2 unknown
23:24 41 °F 37.4 °F 30.3 in NNW 1.2 mph 3.1 mph 88% 0 in 0.00 W/m2 unknown
23:29 41 °F 37.4 °F 30.3 in Calm   1.9 mph 89% 0 in 0.00 W/m2 unknown
23:34 39.2 °F 37.4 °F 30.3 in Calm     89% 0 in 0.00 W/m2 unknown
23:39 39.2 °F 37.4 °F 30.3 in NNE 1.9 mph 2.5 mph 90% 0 in 0.00 W/m2 unknown
23:44 41 °F 37.4 °F 30.3 in NE 1.2 mph 2.5 mph 90% 0 in 0.00 W/m2 unknown
23:49 41 °F 37.4 °F 30.3 in NE 1.9 mph 2.5 mph 89% 0 in 0.00 W/m2 unknown
23:54 39.2 °F 37.4 °F 30.3 in NE 1.9 mph 2.5 mph 90% 0 in 0.00 W/m2 unknown
23:59 39.2 °F 37.4 °F 30.4 in NE 1.2 mph 2.5 mph 90% 0 in 0.00 W/m2 unknown
Stazione Meteorologica MeteoMincio Rivalta s/M (MN)
Con i complimenti di Weather Underground - 4 mb



METEO PILLOLE
Temperatura più alta in Italia
Floridia - Siracusa
L' 11 agosto 2021 alle 13:14 si registrano ben 48,8°C.
Share

Non seguire questo link o sarai bannato dal sito!